Погода в Вашингтоне

США     38°53′58″N   77°02′11″W
темп.,
°C
ветер,
м/с
пор.,
м/с
влажн.,
%
обл.,
%
осадки,
мм/ч
давл.,
гПа
погр.,
м
17 сентября, пт
пт1723:00+22всв3791100 0.0 1021404
02:00+22св3791100 0.0 1021358
05:00+21св2693100 0.0 1021355
08:00+22св379068 0.0 1022418
11:00+24св357790 0.0 1022641
14:00+27в346085 0.5 10201258
17:00+27всв335961 0.9 10191146
20:00+24всв257847 1.1 1019300
18 сентября, сб
сб1823:00+22ссв118629 0.0 101948
02:00+21с12917 0.0 101948
05:00+20ссз12930 0.0 101972
08:00+21ссз12870 0.0 1019138
11:00+26сз23638 0.0 1019935
14:00+30сз23509 0.0 10181543
17:00+30ссз44504 0.0 10161634
20:00+25св11670 0.0 101822
19 сентября, вс
вс1923:00+24юз12735 0.0 101939
02:00+22сз23782 0.0 101981
05:00+21ссв27790 0.0 1020244
08:00+21ссв25753 0.0 1021235
11:00+27ссв23495 0.0 1022980
14:00+30ссв223847 0.0 10211747
17:00+29ссв22395 0.0 10201548
20:00+24в36505 0.0 1022250
20 сентября, пн
пн2023:00+22в2657100 0.0 1023197
02:00+20в136784 0.0 1024132
05:00+19вюв137389 0.0 102498
08:00+19вюв257189 0.0 1025189
11:00+25юв3447100 0.0 1025922
14:00+27юв4440100 0.0 10241372
17:00+26юв354296 0.0 10241135
20:00+22юв4863100 0.0 1025706
21 сентября, вт
вт2123:00+20юв3975100 0.0 1025480
02:00+19вюв388088 0.0 1025413
05:00+18вюв2687100 0.0 1024269
08:00+19юв2685100 0.0 1025270
11:00+24ююв3565100 0.0 10251205
14:00+26ююв3552100 0.1 10231580
17:00+26ююв3452100 0.0 10211217
20:00+23юв3766100 0.0 1021468